Location: Azul
(36.7830°S, 59.8500°W)
Time: 06:11:57
(UTC-03:00)

RS-44 - Visible Passes

Search period start: 16 September 2024 00:00
Search period end: 26 September 2024 00:00
Orbit: 1175 x 1510 km, 82.5° (Epoch: 15 September)

Date Brightness Start Highest point End Pass type
(mag) Time Alt. Az. Time Alt. Az. Time Alt. Az.
16 Sep ? 03:09:24 10° S 03:16:29 54° SE 03:16:29 54° SE visible
16 Sep ? 05:03:46 10° SSW 05:09:01 27° WSW 05:09:01 27° WSW visible
17 Sep ? 01:42:09 10° SSE 01:46:57 16° ESE 01:47:00 16° ESE visible
17 Sep ? 03:33:01 10° S 03:39:33 61° S 03:39:33 61° S visible
17 Sep ? 05:28:57 10° SW 05:32:06 16° WSW 05:32:06 16° WSW visible
18 Sep ? 02:04:28 10° SSE 02:10:09 26° ESE 02:10:09 26° ESE visible
18 Sep ? 03:56:53 10° SSW 04:02:43 47° SW 04:02:43 47° SW visible
19 Sep ? 02:27:31 10° S 02:33:23 37° SE 02:33:23 37° SE visible
19 Sep ? 04:21:03 10° SSW 04:25:57 32° SW 04:25:57 32° SW visible
20 Sep ? 01:02:49 10° SE 01:04:07 10° ESE 01:04:07 10° ESE visible
20 Sep ? 02:50:57 10° S 02:56:41 46° SSE 02:56:41 46° SSE visible
20 Sep ? 04:45:39 10° SSW 04:49:15 21° SW 04:49:15 21° SW visible
21 Sep ? 01:23:13 10° SSE 01:27:28 18° SE 01:27:28 18° SE visible
21 Sep ? 03:14:38 10° S 03:20:02 46° S 03:20:02 46° S visible
21 Sep ? 05:11:10 10° SW 05:12:36 12° WSW 05:12:36 12° WSW visible
22 Sep ? 01:45:50 10° SSE 01:50:50 27° SE 01:50:50 27° SE visible
22 Sep ? 03:38:35 10° SSW 03:43:24 37° SW 03:43:24 37° SW visible
23 Sep ? 02:09:01 10° S 02:14:15 36° SSE 02:14:15 36° SSE visible
23 Sep ? 04:02:51 10° SSW 04:06:49 26° SW 04:06:49 26° SW visible
24 Sep ? 00:42:47 10° SE 00:45:07 12° SE 00:45:07 12° SE visible
24 Sep ? 02:32:32 10° S 02:37:42 42° S 02:37:42 42° S visible
24 Sep ? 04:27:36 10° SW 04:30:16 17° SW 04:30:16 17° SW visible
25 Sep ? 01:04:27 10° SSE 01:08:35 20° SE 01:08:35 20° SE visible
25 Sep ? 02:56:18 10° S 03:01:10 39° SSW 03:01:10 39° SSW visible
25 Sep ? 04:53:38 10° SW 04:53:44 10° SW 04:53:44 10° SW visible
